Regional Weather Roundup
Issued by NWS

Home | Current Version | Previous Version | Text Only | Print | Product List | Glossary Off
Versions: 1 2 3 4 5 6 7 8 9 10 11 12 13 14 15 16 17 18 19 20 21 22 23 24 25 26 27 28 29 30 31 32 33 34 35 36 37 38 39 40 41 42 43 44 45 46 47 48 49 50

000
ASUS44 KMEG 181300
RWRTN
TENNESSEE HOURLY STATE WEATHER ROUNDUP
NATIONAL WEATHER SERVICE MEMPHIS TN
800 AM CDT SAT APR 18 2015

TNZ002-004-019-021-049-052-054-088>092-181400-
WEST TENNESSEE

CITY           SKY/WX    TMP DP  RH WIND       PRES   REMARKS
MEMPHIS INTL   CLOUDY    63  60  90 E6        29.95S
NWS MEMPHIS      N/A     61 N/A N/A MISG        N/A
JACKSON        FOG       58  57  97 CALM      29.98S VSB 1/2
DYERSBURG      CLOUDY    61  48  63 CALM      29.98F
UNION CITY     CLOUDY    57  32  38 NE3       29.98F VSB 1/4
PARIS          CLOUDY    52  52 100 CALM      30.00F VSB 0
LEXINGTON      CLOUDY    55  55 100 CALM      29.98F VSB 0
SAVANNAH       CLOUDY    57  32  38 CALM      29.98F
$$

TNZ008-025-027-028-033-062-065-066-181400-
NORTH MIDDLE TENNESSEE

CITY           SKY/WX    TMP DP  RH WIND       PRES   REMARKS
NASHVILLE      PTSUNNY   62  60  93 NE5       30.01F FOG
CLARKSVILLE    FOG       59  58  96 CALM      30.01F VSB 1/2
COOKEVILLE     SUNNY     57  57 100 CALM      30.02F
CROSSVILLE     PTSUNNY   58  55  90 N6        30.05F
$$

TNZ061-075-076-078-094-096-097-181400-
SOUTH MIDDLE TENNESSEE

CITY           SKY/WX    TMP DP  RH WIND       PRES   REMARKS
FAYETTEVILLE   SUNNY     59  57  94 NE6       30.00S
TULLAHOMA      SUNNY     61  59  94 CALM      30.02R
WINCHESTER     SUNNY     61  59  94 CALM      30.01S
MCMINNVILLE    SUNNY     59  59 100 NE5       30.02S
COLUMBIA       CLOUDY    57  32  38 CALM      30.00S VSB 0
SHELBYVILLE    CLOUDY    61  61 100 CALM      30.02R VSB 1/2
$$

TNZ017-018-042-046-047-181400-
NORTHEAST TENNESSEE

CITY           SKY/WX    TMP DP  RH WIND       PRES   REMARKS
TRI CITIES     MOSUNNY   58  57  97 CALM      30.07R
ELIZABETHTON   SUNNY     61  55  82 CALM      30.06S
$$

TNZ012-013-036-069-073-074-181400-
CENTRAL EAST TENNESSEE

CITY           SKY/WX    TMP DP  RH WIND       PRES   REMARKS
KNOXVILLE      FOG       59  59 100 NE6       30.02S VSB 1/2
OAK RIDGE      FOG       59  58  96 VRB3      30.04F VSB 3/4
GATLINBURG     PTSUNNY   61  59  94 CALM      30.03F
$$

TNZ083-085-099-181400-
SOUTHEAST TENNESSEE

CITY           SKY/WX    TMP DP  RH WIND       PRES   REMARKS
CHATTANOOGA    FOG       59  58  96 CALM      30.01F VSB 1/2
$$

SKY/WX REPORTED AS FAIR MEANS FEW OR NO CLOUDS BELOW
12 THOUSAND FEET.



USA.gov is the U.S. government's official web portal to all federal, state and local government web resources and services.